Location: Ariel
(45.9570°N, 122.5700°W)
Time: 17:56:46
(UTC-07:00)

Altair - Pass Details

Date: 28 July 2019
Orbit: 1501 x 1683 km, 47.2° (Epoch: 19 August)

Event Time Altitude Azimuth Distance (km) Brightness Sun altitude
Rises 08:23:56 0° 174° (S) 4,705 10.1 25.0°
Reaches altitude 10° 08:29:14 10° 149° (SSE) 3,692 10.0 26.0°
Maximum altitude 08:33:05 13° 124° (SE) 3,419 10.4 26.6°
Drops below altitude 10° 08:36:54 10° 99° (E) 3,664 11.2 27.3°
Sets 08:42:04 0° 75° (ENE) 4,638 11.1 28.2°
